www.pogodaiklimat.ru
Время
(UTC), дата
21 18.02
00 19.02
03 19.02
06 19.02
09 19.02
12 19.02
15 19.02
18 19.02
21 19.02
00 20.02
03 20.02
06 20.02
09 20.02
12 20.02
15 20.02
18 20.02
21 20.02
00 21.02
03 21.02
06 21.02
09 21.02
12 21.02
15 21.02
18 21.02
21 21.02
00 22.02
03 22.02
06 22.02
09 22.02
12 22.02
15 22.02
18 22.02
21 22.02
00 23.02
03 23.02
06 23.02
09 23.02
12 23.02
15 23.02
18 23.02
21 23.02
00 24.02
03 24.02
06 24.02
09 24.02
12 24.02
15 24.02
18 24.02
21 24.02
00 25.02
03 25.02
06 25.02
09 25.02
12 25.02
15 25.02
18 25.02
Ветер
(напр.,м/с)
Видим. Явления Облачность Т
(С)
Тd
(С)
f
(%)
Тe
(С)
Тes
(С)
Комфортность P
(гПа)
Po
(гПа)
Тmin
(С)
Tmax
(С)
R
(мм)
R24
(мм)
S
(см)
Ю 2 н/о н/о +2.2 +0.8 90 -1 -1 тепло 1022.6 998.1
ЮВ 3 4000 м дымка 5/0
[Ac trans]
+0.1 -1.2 91 -5 -5 по сезону 1021.1 996.5
ЮВ 1 4000 м дымка ясно -0.2 -1.5 91 -2 -2 по сезону 1020.6 996.0 -0.3
ЮВ 2 500 м туман [диам. гололёда 0 мм] ясно +1.7 +0.4 91 -2 +1 по сезону 1020.1 995.7 -2.3
Ю 3 20 км {туман} ясно +6.9 +1.2 67 +4 +10 тепло 1018.5 994.5
ЮЗ 1 20 км 1/0
[Ac trans]
+9.9 -3.6 38 +10 +13 тепло 1016.7 993.0
З 2 20 км 1/0
[Ac trans]
+6.1 -2.4 54 +4 +4 тепло 1016.9 992.9 +10.3
ЮВ 2 10 км ясно +3.6 -2.0 67 +1 +1 тепло 1017.3 993.1
ЮВ 2 10 км ясно +2.7 -0.6 79 -0 -0 тепло 1017.2 992.9
ЮВ 1 10 км ясно +2.4 -0.1 84 +1 +1 тепло 1016.7 992.4
В 3 10 км 10/0
[Ac und]
+0.7 -0.8 90 -4 -4 по сезону 1017.3 992.9 +0.6
В 3 500 м туман 8/0
[Ac As]
+0.9 -0.4 91 -4 -3 по сезону 1018.8 994.4 +0.3
В 4 500 м туман 10/0
[As trans]
+1.5 +1.5 100 -4 -2 по сезону 1018.3 993.9
В 5 20 км {туман} 10/10 600 м
[Sc]
+3.6 +0.9 82 -1 -1 по сезону 1017.4 993.2
В 5 10 км 10/10 300 м
[Sc]
+2.3 +0.1 85 -3 -3 по сезону 1017.4 993.2 +3.8
В 7
{10}
500 м туман н/о +0.2 -1.0 92 -7 -7 по сезону 1019.6 995.0
В 4 200 м туман н/о +0.1 -1.1 92 -5 -5 по сезону 1020.1 995.6
В 4 200 м слаб. морось {туман} туман н/о -0.6 -1.7 92 -6 -6 по сезону 1019.6 995.0
СВ 6 200 м туман [диам. гололёда 2 мм] н/о -1.0 -2.1 92 -8 -8 по сезону 1020.0 995.3 -1.1 0.1
В 5 50 м туман [диам. гололёда 3 мм] н/о -0.8 -1.9 92 -7 -7 по сезону 1021.6 996.9 -1.5
В 4 50 м туман н/о +0.2 -0.9 92 -5 -5 по сезону 1021.1 996.5
В 5 200 м туман н/о +0.6 +0.6 100 -6 -6 прохладно 1020.6 996.0
В 5 4000 м дымка {туман} 10/10 300 м
[St]
+0.3 -0.8 92 -6 -6 по сезону 1021.4 996.8 +0.7 0.0
В 3 4000 м в посл. час туман {дождь} 10/10 300 м
[St]
+0.1 -1.0 92 -5 -5 по сезону 1022.6 997.9
ЮВ 4 4000 м дымка 10/10 300 м
[St]
0.0 -1.1 92 -6 -6 по сезону 1022.5 997.9
В 6 4000 м дымка 10/10 300 м
[St]
-0.3 -1.4 92 -7 -7 по сезону 1022.4 997.7
В 5 500 м слаб. морось {туман} туман н/о -0.6 -0.6 100 -7 -7 по сезону 1023.1 998.4 -0.6 0.3
В 5 500 м слаб. переохл. морось (гололёд) {туман} [диам. гололёда 2 мм] н/о -0.6 -1.7 92 -7 -7 по сезону 1024.6 999.8 -0.7
В 6 4000 м в посл. час туман 9/8 600 м
[Cb cap Ac trans]
+0.9 -0.3 92 -6 -5 по сезону 1024.6 1000.0
В 7-10
{11}
20 км {морось, туман} 8/0
[Ac trans Ci fib]
+4.4 -0.9 68 -1 -1 по сезону 1022.9 998.6
В 4
{10}
10 км 9/0
[Ac trans Ci fib]
+4.0 -1.9 65 -0 -0 по сезону 1023.6 999.3 +5.7 0.0
В 5 10 км 6/0
[Ac trans]
+0.6 -3.4 75 -5 -5 по сезону 1024.7 1000.0
ЮВ 3 10 км 5/0
[Ac trans]
-0.7 -3.4 82 -5 -5 по сезону 1024.2 999.4
ЮВ 2 10 км 9/0
[Ac trans]
-0.7 -3.4 82 -4 -4 по сезону 1023.4 998.7
Ю 2 н/о н/о -0.5 -1.8 91 -4 -4 по сезону 1022.7 998.0 -1.0 4
Ю 6 500 м туман [диам. гололёда 0 мм] н/о +0.3 -0.9 92 -6 -6 по сезону 1022.3 997.7 -1.1
ЮЗ 5 4000 м слаб. ливневой дождь {туман} 10/10 300 м
[Cb cap]
+2.6 +1.2 90 -3 -3 по сезону 1021.4 997.0
З 6 4000 м слаб. ливневой дождь {туман} 10/10 300 м
[Cb cap]
+3.5 +1.7 88 -2 -2 по сезону 1020.1 995.8
З 6
{11}
2000 м дымка {ливн. осадки} 10/10 300 м
[St]
+1.1 -0.2 91 -5 -5 по сезону 1020.0 995.5 +3.6 3
З 6
{12}
10 км {ливн. осадки, морось} 10/10 300 м
[Sc]
+0.6 -1.2 88 -6 -6 по сезону 1019.7 995.2
ЮЗ 6
{10}
4000 м дымка 10/10 300 м
[Sc]
+0.5 -1.0 90 -6 -6 по сезону 1018.0 993.5
ЮЗ 3 10 км 10/10 300 м
[Sc]
+2.1 -0.4 84 -2 -2 тепло 1016.1 991.8
ЮЗ 4 10 км 10/6 600 м
[Sc Ac trans]
+2.8 -0.2 81 -2 -2 тепло 1014.7 990.4 +0.3
ЮЗ 4 10 км 10/10 600 м
[Sc]
+4.0 +0.5 78 -0 -0 тепло 1013.6 989.5
Ю 4 4000 м в посл. час ливневой дождь 10/10 300 м
[Cb cap]
+3.9 +2.1 88 -1 -1 по сезону 1010.8 986.8
ЮВ 7
{10}
20 км {ливн. осадки} 10/10 300 м
[Sc]
+5.0 +0.9 75 -0 -0 по сезону 1007.7 983.9
ЮВ 6 10 км слаб. ливневой дождь 10/10 300 м
[Cb cap]
+4.6 +1.6 81 -1 -1 по сезону 1005.5 981.7 +5.2 1
ЮВ 7-10
{11}
10 км слаб. ливневой дождь 10/10 300 м
[Cb cap]
+3.7 +0.1 77 -2 -2 по сезону 1003.3 979.4
ЮВ 6
{12}
4000 м ливневой дождь 10/10 300 м
[Cb cap]
+3.2 +1.5 89 -3 -3 по сезону 1001.7 977.9
ЮЗ 7-10
{12}
10 км слаб. ливневой дождь 10/10 300 м
[Cb cap]
+3.4 +1.5 87 -3 -3 по сезону 1002.4 978.5
З 12-19
{20}
10 км {ливн. осадки} 10/10 300 м
[Cb cap]
+2.6 -2.1 71 -5 -5 по сезону 1002.1 978.2 +2.6 2
ЮЗ 15-21
{21}
20 км {снег} 9/8 600 м
[Cb cap Ac trans]
+2.4 -2.0 73 -6 -6 по сезону 1004.0 980.0 +2.3
З 15-23
{26}
20 км слаб. ливневой дождь 10/8 600 м
[Cb cap Ac und]
+2.6 -1.1 77 -6 -6 по сезону 1005.0 981.0
З 11-16
{28}
20 км слаб. крупа 9/8 600 м
[Cb cap Ac trans]
+1.4 -0.2 89 -7 -7 холодно 1007.7 983.6
З 10-14
{18}
20 км в посл. час крупа {ливн. осадки} 3/3 600 м
[Cb cap Ac trans]
+2.2 -2.1 73 -5 -5 по сезону 1010.9 986.7 +3.5 0.7
З 7-11
{14}
10 км {ливн. осадки} 3/3 600 м
[Sc]
+0.6 -2.8 78 -6 -6 по сезону 1014.2 989.8
Местоположение метеостанции Элиста (Калмыкия, Россия): широта 46.37 долгота 44.33 высота над уровнем моря 153 м.
В архиве по умолчанию представлена погода в Элисте за последнюю неделю. Архивные данные за месяц целиком и за предыдущие месяцы, начиная с января 2011 года, Вы можете получить, выбрав интересующий диапазон дат из раскрывающегося списка и нажав кнопку "Найти!".
*Определитесь, кто Вы:
Внимание! Время в таблицах - всемирное. Для получения местного времени необходимо прибавить поправку, которая равна 3 ч.
Смотрите также архив погоды в соседних городах и на ближайших метеорологических станциях:
Партнеры нашего сайта:      
Пояснения к столбцам:
  • Ветер - указаны скорость ветра в м/с - средняя за 10 мин, порывы в срок и между сроками (в фигурных скобках) и направление, откуда дует ветер: С - северный,
  • СВ - северо-восточный, В - восточный, ЮВ - юго-восточный, Ю - южный, ЮЗ - юго-западный, З - западный, СЗ - северо-западный.
  • Видимость - горизонтальная дальность видимости в метрах или километрах. При видимости от 1 до 10 км при отсутствии осадков обычно наблюдается дымка, при ухудшении видимости до 1 км и менее - туман. В сухую погоду видимость может ухудшаться дымом, пылью или мглою.
  • Явления - указаны атмосферные явления, наблюдавшиеся в срок или в последний час перед сроком; фигурными скобками обозначены явления, наблюдавшиеся между сроками (за 1-3 часа до срока); квадратными скобками обозначены град или гололедные отложения с указанием их диаметра в мм.
  • Облачность - указаны через наклонную черту общая и нижняя облачность в баллах и высота нижней границы облаков в метрах; квадратными скобками обозначены формы облаков: Ci - перистые, Cs - перисто-слоистые, Cc - перисто-кучевые, Ac - высококучевые, As - высокослоистые, Sc - слоисто-кучевые, Ns - слоисто-дождевые, Cu - кучевые, Cb - кучево-дождевые. Подробнее классификацию облаков см. в Атласе облаков (PDF).
  • T - Температура воздуха - температура, измеренная на высоте 2 м над землей.
  • Td - Температура точки росы - температура, при понижении до которой содержащийся в воздухе водяной пар достигнет насыщения.
  • f - Относительная влажность воздуха - влажноcть воздуха, измеренная на высоте 2 м над землей.
  • Te - Эффективная температура - температура, которую ощущает одетый по сезону человек в тени. Характеристика душности погоды. При расчете учитывается влияние влажности воздуха и скорости ветра на теплоощущения человека.
  • Tes - Эффективная температура на солнце - температура, которую ощущает человек, с поправкой на солнечный нагрев. Характеристика знойности погоды. Зависит от высоты солнца над горизонтом, облачности и скорости ветра. Ночью, в пасмурную погоду, а также при ветре 12 м/с и более поправка равна нулю.
  • P - Атмосферное давление - приведенное к уровню моря атмосферное давление.
  • Po - Атмосферное давление - измеренное на уровне метеостанции атмосферное давление.
  • Tmin - Минимальная температура - минимум температуры воздуха на высоте 2 м над землей.
  • Tmax - Максимальная температура - максимум температуры воздуха на высоте 2 м над землей.
  • R - Количество осадков - Количество выпавших осадков за период времени, мм. При наведении курсора мыши на число - период времени, за который выпало указанное количество осадков.
  • R24 - Количество осадков - Количество выпавших осадков за 24 часа, мм.
  • S - Снежный покров - Высота снежного покрова, см. При наведении курсора мыши на число - состояние снежного покрова и степень покрытия местности в баллах.